KB9BK Weather Reports


time (UTC)temp
C
wind
direction
speed
KPH
gust
KPH
rain 1hr
cm
rain 24hr
cm
rain mn
cm
humidity
%
barometer
mb
20260906135635 22 75 4.8 9.7 0.00 0.00 0.00 70 1020.2
20260906134636 22 59 3.2 8.0 0.00 0.00 0.00 71 1020.4
20260906133635 21 68 3.2 8.0 0.00 0.00 0.00 73 1020.2
20260906133116 21 135 3.2 6.4 0.00 0.00 0.00 74 1020.1
20260906131630 21 110 3.2 8.0 0.00 0.00 0.00 76 1020.0
20260906130630 21 149 1.6 6.4 0.00 0.00 0.00 77 1019.8
20260906125630 21 141 1.6 4.8 0.00 0.00 0.00 78 1019.7
20260906124631 20 336 1.6 3.2 0.00 0.00 0.00 82 1019.6
20260906123632 20 47 1.6 3.2 0.00 0.00 0.00 84 1019.5
20260906122630 18 312 0.0 1.6 0.00 0.00 0.00 93 1019.6
20260906121630 18 253 1.6 3.2 0.00 0.00 0.00 94 1019.5
20260906120631 17 311 0.0 3.2 0.00 0.00 0.00 94 1019.3
20260906115631 17 0 0.0 1.6 0.00 0.00 0.00 94 1019.1
20260906114616 17 297 1.6 3.2 0.00 0.00 0.00 93 1019.1
20260906113616 17 257 1.6 1.6 0.00 0.00 0.00 93 1019.0
20260906112617 17 256 1.6 3.2 0.00 0.00 0.00 93 1018.8
20260906111618 17 297 1.6 3.2 0.00 0.00 0.00 93 1018.7
20260906110616 17 242 1.6 3.2 0.00 0.00 0.00 92 1018.6
20260906110057 18 305 1.6 3.2 0.00 0.00 0.00 92 1018.5
20260906105553 18 229 1.6 3.2 0.00 0.00 0.00 92 1018.6
20260906103603 18 308 1.6 4.8 0.00 0.00 0.00 92 1018.7
20260906102605 18 289 1.6 3.2 0.00 0.00 0.00 92 1018.7
20260906101605 18 94 1.6 4.8 0.00 0.00 0.00 92 1018.5
20260906101046 18 335 1.6 3.2 0.00 0.00 0.00 92 1018.5
20260906095606 18 232 1.6 3.2 0.00 0.00 0.00 92 1018.5
20260906094605 18 233 1.6 3.2 0.00 0.00 0.00 91 1018.4
20260906093604 18 0 1.6 4.8 0.00 0.00 0.00 91 1018.3
20260906092603 18 357 3.2 6.4 0.00 0.00 0.00 90 1018.1
20260906091550 18 96 3.2 6.4 0.00 0.00 0.00 90 1017.9
20260906091031 18 331 3.2 4.8 0.00 0.00 0.00 90 1018.3
20260906090030 18 164 1.6 4.8 0.00 0.00 0.00 90 1018.4
20260906084552 18 14 1.6 6.4 0.00 0.00 0.00 91 1018.3
20260906083551 18 107 1.6 4.8 0.00 0.00 0.00 91 1018.1
20260906082552 18 23 1.6 6.4 0.00 0.00 0.00 91 1018.0
20260906081553 18 312 1.6 4.8 0.00 0.00 0.00 91 1018.1
20260906080537 18 301 3.2 6.4 0.00 0.00 0.00 91 1018.1
20260906075536 18 317 3.2 6.4 0.00 0.00 0.00 90 1018.0
20260906074537 18 240 3.2 6.4 0.00 0.00 0.00 90 1017.9
20260906073519 18 0 1.6 4.8 0.00 0.00 0.00 91 1017.9
20260906072519 18 348 1.6 3.2 0.00 0.00 0.00 91 1017.8
20260906071520 18 319 1.6 4.8 0.00 0.00 0.00 91 1017.8
20260906070519 18 251 1.6 4.8 0.00 0.00 0.00 91 1017.8
20260906065519 18 204 1.6 4.8 0.00 0.00 0.00 91 1017.8
20260906064941 18 309 3.2 4.8 0.00 0.00 0.00 91 1018.0
20260906063506 18 259 3.2 6.4 0.00 0.00 0.00 92 1018.0
20260906062505 18 248 1.6 6.4 0.00 0.00 0.00 92 1018.0
20260906061508 18 318 3.2 6.4 0.00 0.00 0.00 93 1017.9
20260906060507 18 313 3.2 6.4 0.00 0.00 0.00 93 1017.9
20260906055508 18 229 3.2 6.4 0.00 0.00 0.00 93 1017.8
20260906054508 18 320 3.2 8.0 0.00 0.00 0.00 93 1017.8
20260906053506 18 7 3.2 6.4 0.00 0.00 0.00 93 1017.8
20260906052453 18 278 3.2 4.8 0.00 0.00 0.00 93 1017.8
20260906051453 18 175 3.2 6.4 0.00 0.00 0.00 92 1017.8
20260906050944 18 315 3.2 6.4 0.00 0.00 0.00 92 1017.6
20260906045454 18 256 3.2 6.4 0.00 0.00 0.00 92 1017.6
20260906044454 18 234 1.6 4.8 0.00 0.00 0.00 92 1017.6
20260906043453 18 309 1.6 4.8 0.00 0.00 0.00 92 1017.3
20260906042455 18 333 1.6 4.8 0.00 0.00 0.00 91 1017.3
20260906041437 19 287 1.6 4.8 0.00 0.00 0.00 90 1017.2
20260906040439 19 15 1.6 4.8 0.00 0.00 0.00 90 1017.1
20260906035425 19 79 3.2 6.4 0.00 0.00 0.00 89 1017.2
20260906034424 19 264 1.6 6.4 0.00 0.00 0.00 88 1017.4
20260906033412 19 4 1.6 3.2 0.00 0.00 0.00 88 1017.3
20260906032411 20 64 3.2 6.4 0.00 0.00 0.00 87 1017.2
20260906031410 20 35 3.2 8.0 0.00 0.00 0.00 87 1017.2
20260906030411 20 44 3.2 6.4 0.00 0.00 0.00 87 1017.3
20260906025406 20 15 3.2 8.0 0.00 0.00 0.00 86 1017.3
20260906024406 20 28 4.8 9.7 0.00 0.00 0.00 86 1017.0
20260906023406 20 62 4.8 11.3 0.00 0.00 0.00 85 1016.9
20260906022407 20 339 3.2 8.0 0.00 0.00 0.00 85 1016.9
20260906021421 20 49 3.2 8.0 0.00 0.00 0.00 85 1016.9
20260906020406 20 68 3.2 6.4 0.00 0.00 0.00 84 1017.0
20260906015407 20 89 3.2 6.4 0.00 0.00 0.00 84 1017.0
20260906014409 20 52 3.2 4.8 0.00 0.00 0.00 84 1017.1
20260906013406 20 89 3.2 8.0 0.00 0.00 0.00 83 1016.9
20260906012406 20 304 3.2 4.8 0.00 0.00 0.00 83 1016.9
20260906011832 21 70 3.2 6.4 0.00 0.00 0.00 83 1016.9
20260906010353 21 47 3.2 6.4 0.00 0.00 0.00 82 1017.0
20260906005349 21 303 3.2 11.3 0.00 0.00 0.00 81 1016.9
20260906004826 21 282 4.8 12.9 0.00 0.00 0.00 81 1016.8
20260906003349 21 277 4.8 12.9 0.00 0.00 0.00 82 1016.8
20260906002349 21 5 4.8 12.9 0.00 0.00 0.00 82 1016.8
20260906001825 21 194 4.8 11.3 0.00 0.00 0.00 83 1016.8
20260906000348 21 99 4.8 11.3 0.00 0.00 0.00 84 1016.8
20260905235341 21 50 4.8 11.3 0.00 0.00 0.00 85 1016.9
20260905234344 21 29 3.2 11.3 0.00 0.00 0.00 85 1016.9
20260905233341 21 64 3.2 14.5 0.00 0.00 0.00 86 1016.9
20260905232342 21 60 4.8 11.3 0.00 0.00 0.00 87 1016.9
20260905231343 21 19 4.8 12.9 0.00 0.00 0.00 88 1016.9
20260905230827 21 73 4.8 11.3 0.00 0.00 0.00 87 1016.9
20260905225342 21 49 4.8 11.3 0.00 0.00 0.00 87 1016.9
20260905224340 21 342 4.8 14.5 0.00 0.00 0.00 86 1017.0
20260905223339 21 68 6.4 14.5 0.00 0.00 0.00 85 1016.8
20260905222340 21 74 3.2 11.3 0.00 0.00 0.00 84 1016.7
20260905221339 21 77 4.8 16.1 0.00 0.00 0.00 84 1016.5
20260905220822 21 39 4.8 11.3 0.00 0.00 0.00 83 1016.4
20260905215822 21 73 4.8 11.3 0.00 0.00 0.00 83 1016.3
20260905214340 21 58 6.4 16.1 0.00 0.00 0.00 83 1016.2
20260905213342 22 75 4.8 14.5 0.00 0.00 0.00 83 1016.2
20260905212337 21 169 6.4 14.5 0.00 0.00 0.00 84 1016.2
20260905212301 22 92 6.4 17.7 0.00 0.00 0.00 84 1016.2
20260905210337 22 35 6.4 14.5 0.00 0.00 0.00 84 1016.0
20260905205339 22 56 6.4 14.5 0.00 0.00 0.00 81 1016.1
20260905204338 23 69 6.4 16.1 0.00 0.00 0.00 81 1016.1
20260905203338 23 92 6.4 16.1 0.00 0.00 0.00 79 1016.0
20260905202338 23 31 6.4 17.7 0.00 0.00 0.00 78 1015.9
20260905202308 23 66 4.8 14.5 0.00 0.00 0.00 80 1016.1
20260905200335 23 84 6.4 14.5 0.00 0.00 0.00 81 1015.9
20260905195335 23 72 8.0 14.5 0.00 0.00 0.00 82 1016.0
20260905194336 23 23 6.4 14.5 0.00 0.00 0.00 82 1016.1
20260905193336 22 56 6.4 14.5 0.00 0.00 0.00 84 1016.0
20260905192337 22 76 8.0 17.7 0.00 0.00 0.00 85 1016.0
20260905191336 23 69 8.0 16.1 0.00 0.00 0.00 83 1016.0
20260905190337 23 69 9.7 17.7 0.00 0.00 0.00 82 1016.0
20260905185817 24 54 9.7 17.7 0.00 0.00 0.00 79 1016.0
20260905184336 25 84 9.7 20.9 0.00 0.00 0.00 80 1015.8
20260905183336 25 29 9.7 19.3 0.00 0.00 0.00 79 1016.0
20260905182334 25 57 6.4 19.3 0.00 0.00 0.00 79 1015.9
20260905181334 24 121 6.4 14.5 0.00 0.00 0.00 80 1015.9
20260905180334 25 103 3.2 11.3 0.00 0.00 0.00 78 1016.0
20260905175333 24 79 6.4 12.9 0.00 0.00 0.00 79 1015.8
20260905174334 25 115 4.8 14.5 0.00 0.00 0.00 77 1015.9
20260905173818 24 75 4.8 11.3 0.00 0.00 0.00 79 1016.0
20260905172332 24 37 4.8 14.5 0.00 0.00 0.00 79 1016.0
20260905171332 24 76 4.8 9.7 0.00 0.00 0.00 80 1016.0
20260905170820 24 113 4.8 11.3 0.00 0.00 0.00 79 1016.0
20260905165329 24 104 4.8 11.3 0.00 0.00 0.00 79 1016.1
20260905164329 24 26 4.8 12.9 0.00 0.00 0.00 80 1016.2
20260905163329 24 74 4.8 16.1 0.00 0.00 0.00 79 1016.1
20260905162813 24 147 3.2 11.3 0.00 0.00 0.00 80 1016.1
20260905161329 24 87 4.8 11.3 0.00 0.00 0.00 79 1016.1
20260905160330 23 202 3.2 8.0 0.00 0.03 0.00 83 1016.2
20260905155314 23 22 3.2 8.0 0.00 0.05 0.00 84 1016.1
20260905154314 23 319 3.2 9.7 0.00 0.13 0.00 84 1016.1
20260905153315 23 269 3.2 9.7 0.00 0.51 0.00 84 1016.0
20260905152314 23 97 3.2 9.7 0.00 0.51 0.00 84 1016.0
20260905152247 23 336 3.2 8.0 0.00 0.51 0.00 83 1015.8
20260905150315 23 33 3.2 8.0 0.00 0.51 0.00 83 1015.7
20260905145314 23 6 3.2 8.0 0.00 0.51 0.00 84 1015.7
20260905144315 23 218 3.2 8.0 0.00 0.51 0.00 86 1015.6
20260905143316 22 57 4.8 14.5 0.00 0.51 0.00 89 1015.3
20260905142316 22 19 3.2 6.4 0.00 0.53 0.00 89 1015.3
20260905141315 22 246 3.2 11.3 0.00 0.53 0.00 90 1015.4